Washington, VA

2:18 AM EDT on March 26, 2017 (GMT -0400)
Ronald Reagan Washington National

Weather History for KDCA - January, 2014

Change the Weather History Date:

Wednesday, January 22, 2014

  Actual Average Record
Temperature  
Mean Temperature 14 °F 36 °F  
Max Temperature 19 °F 43 °F 76 °F (1927)
Min Temperature 9 °F 28 °F 1 °F (1893)
Degree Days  
Heating Degree Days 51 29  
Month to date heating degree days 657 638  
Since 1 July heating degree days 2061 2119  
Cooling Degree Days 0 0  
Month to date cooling degree days 0 0  
Year to date cooling degree days 0 0  
Moisture  
Dew Point -4 °F    
Average Humidity 45    
Maximum Humidity 55    
Minimum Humidity 34    
Precipitation  
Precipitation T in 0.09 in 1.49 in (1987)
Month to date precipitation 2.55 1.99  
Year to date precipitation 2.55 1.99  
Snow  
Snow T in 0.20 in 10.80 in (1987)
Month to date snowfall 5.7 3.6  
Since 1 July snowfall 7.2 6.4  
Snow Depth 4.00 in    
Sea Level Pressure  
Sea Level Pressure 30.02 in    
Wind  
Wind Speed 15 mph (NNW)    
Max Wind Speed 30 mph    
Max Gust Speed 36 mph    
Visibility 10 miles    
Events      
T = Trace of Precipitation, MM = Missing Value Source: NWS Daily Summary

Daily Weather History Graph

Daily Weather History Graph

Search for Another Location

Airport or City:

Trip Planner

Search our weather history database for the weather conditions in past years. The results will help you decide how hot, cold, wet, or windy it might be!

Date:

Astronomy

Jan. 22, 2014 Rise Set
Actual Time 7:21 AM EST 5:18 PM EST
Civil Twilight 6:53 AM EST 5:46 PM EST
Nautical Twilight 6:20 AM EST 6:19 PM EST
Astronomical Twilight 5:48 AM EST 6:51 PM EST
Moon 11:44 PM EST (1/22) 10:25 AM EST (1/22)
Length of Visible Light 10h 53m
Length of Day
9h 56m
Waning Gibbous, 65% of the Moon is Illuminated
Jan 22
Waning Gibbous
Jan 24
Last Quarter
Jan 30
New
Feb 6
First Quarter
Feb 14
Full

Hourly Weather History & Observations

Time (EST) Temp. Windchill Dew Point Humidity Pressure Visibility Wind Dir Wind Speed Gust Speed Precip Events Conditions
12:52 AM 15.1 °F -3.7 °F -2.0 °F 47% 29.92 in 10.0 mi North 24.2 mph 31.1 mph 0.00 in   Overcast
1:52 AM 14.0 °F -3.4 °F -0.9 °F 52% 29.93 in 9.0 mi North 19.6 mph 27.6 mph N/A   Overcast
2:52 AM 12.9 °F -6.5 °F -2.9 °F 49% 29.94 in 10.0 mi NNW 24.2 mph 32.2 mph N/A   Mostly Cloudy
3:52 AM 12.0 °F -7.3 °F -2.9 °F 51% 29.94 in 10.0 mi NNW 23.0 mph 32.2 mph N/A   Scattered Clouds
4:52 AM 10.9 °F -4.7 °F -4.0 °F 51% 29.95 in 10.0 mi NW 13.8 mph - N/A   Clear
5:52 AM 10.9 °F -7.0 °F -4.0 °F 51% 29.97 in 10.0 mi NW 18.4 mph 25.3 mph N/A   Clear
6:52 AM 9.0 °F -8.5 °F -5.1 °F 53% 29.99 in 10.0 mi NNW 16.1 mph 23.0 mph N/A   Partly Cloudy
7:52 AM 9.0 °F -9.0 °F -6.0 °F 51% 30.01 in 10.0 mi NNW 17.3 mph 24.2 mph N/A   Partly Cloudy
8:52 AM 10.0 °F -9.5 °F -5.1 °F 51% 30.01 in 10.0 mi NNW 21.9 mph 26.5 mph N/A   Partly Cloudy
9:52 AM 10.9 °F -5.4 °F -6.0 °F 47% 30.04 in 10.0 mi NW 15.0 mph 24.2 mph N/A   Partly Cloudy
10:52 AM 12.0 °F -5.1 °F -6.0 °F 44% 30.05 in 10.0 mi NW 17.3 mph - N/A   Partly Cloudy
11:52 AM 14.0 °F -3.9 °F -4.0 °F 45% 30.04 in 10.0 mi NNW 20.7 mph 25.3 mph N/A   Scattered Clouds
12:52 PM 15.1 °F -1.6 °F -5.1 °F 41% 30.01 in 10.0 mi NW 18.4 mph - N/A   Scattered Clouds
1:52 PM 17.1 °F 2.0 °F -4.0 °F 39% 30.01 in 10.0 mi NNW 16.1 mph - N/A   Partly Cloudy
2:52 PM 18.0 °F 5.4 °F -4.0 °F 38% 30.01 in 10.0 mi NW 11.5 mph - N/A   Partly Cloudy
3:52 PM 18.0 °F 5.4 °F -4.0 °F 38% 30.03 in 10.0 mi NNW 11.5 mph 23.0 mph N/A   Clear
4:52 PM 19.0 °F 8.2 °F -5.1 °F 34% 30.04 in 10.0 mi NW 9.2 mph 18.4 mph N/A   Clear
5:52 PM 18.0 °F 5.4 °F -4.0 °F 38% 30.06 in 10.0 mi WNW 11.5 mph - N/A   Partly Cloudy
6:52 PM 18.0 °F 7.7 °F -4.0 °F 38% 30.07 in 10.0 mi WNW 8.1 mph - N/A   Partly Cloudy
7:52 PM 17.1 °F 8.7 °F -4.0 °F 39% 30.08 in 10.0 mi WNW 5.8 mph - N/A   Clear
8:52 PM 16.0 °F 5.3 °F -5.1 °F 39% 30.09 in 10.0 mi North 8.1 mph - N/A   Partly Cloudy
9:52 PM 17.1 °F 5.0 °F -2.9 °F 41% 30.10 in 10.0 mi NNW 10.4 mph - N/A   Mostly Cloudy
10:52 PM 17.1 °F 3.0 °F -2.9 °F 41% 30.12 in 10.0 mi NNW 13.8 mph - N/A   Overcast
11:52 PM 16.0 °F 2.9 °F -4.0 °F 41% 30.13 in 10.0 mi NW 11.5 mph - N/A   Overcast